02-06-2022, 00:00:09,     63,    0.0,    9.2,   0.00,   0.00, 1016.3,   71.8, -999.0
02-06-2022, 00:00:19,     63,    0.0,    9.2,   0.00,   0.00, 1016.3,   71.9, -999.0
02-06-2022, 00:00:29,     63,    0.0,    9.2,   0.00,   0.00, 1016.3,   72.0, -999.0
02-06-2022, 00:00:39,     63,    0.0,    9.1,   0.00,   0.00, 1016.3,   72.0, -999.0
02-06-2022, 00:00:49,     63,    0.0,    9.1,   0.00,   0.00, 1016.3,   72.0, -999.0
02-06-2022, 00:00:59,     62,    0.0,    9.0,   0.00,   0.00, 1016.3,   72.1, -999.0
02-06-2022, 00:01:09,     63,    0.0,    9.1,   0.00,   0.00, 1016.3,   72.2, -999.0
02-06-2022, 00:01:19,     63,    0.0,    9.2,   0.00,   0.00, 1016.3,   72.3, -999.0
02-06-2022, 00:01:29,     62,    0.0,    9.0,   0.00,   0.00, 1016.3,   72.5, -999.0
02-06-2022, 00:01:39,     62,    0.0,    9.1,   0.00,   0.00, 1016.3,   72.6, -999.0
02-06-2022, 00:01:49,     64,    0.0,    9.1,   0.00,   0.00, 1016.3,   72.7, -999.0
02-06-2022, 00:01:59,     63,    0.0,    9.0,   0.00,   0.00, 1016.3,   72.8, -999.0
02-06-2022, 00:02:08,     62,    0.0,    9.1,   0.00,   0.00, 1016.3,   72.9, -999.0
02-06-2022, 00:02:18,     62,    0.0,    9.1,   0.00,   0.00, 1016.3,   73.0, -999.0
02-06-2022, 00:02:29,     63,    0.0,    9.0,   0.00,   0.00, 1016.3,   73.1, -999.0
02-06-2022, 00:02:38,     63,    0.0,    8.9,   0.00,   0.00, 1016.3,   73.4, -999.0
02-06-2022, 00:02:48,     60,    0.0,    9.0,   0.00,   0.00, 1016.3,   73.5, -999.0
02-06-2022, 00:02:58,     63,    0.0,    9.0,   0.00,   0.00, 1016.3,   73.5, -999.0
02-06-2022, 00:03:08,     63,    0.0,    9.0,   0.00,   0.00, 1016.3,   73.4, -999.0
02-06-2022, 00:03:18,     64,    0.0,    8.9,   0.00,   0.00, 1016.3,   73.5, -999.0
02-06-2022, 00:03:28,     63,    0.0,    8.8,   0.00,   0.00, 1016.3,   73.5, -999.0
02-06-2022, 00:03:38,     63,    0.0,    8.8,   0.00,   0.00, 1016.4,   73.5, -999.0
02-06-2022, 00:03:48,     63,    0.0,    8.8,   0.00,   0.00, 1016.3,   73.6, -999.0
02-06-2022, 00:03:58,     63,    0.0,    8.7,   0.00,   0.00, 1016.3,   73.9, -999.0
02-06-2022, 00:04:08,     63,    0.0,    8.6,   0.00,   0.00, 1016.3,   74.0, -999.0
02-06-2022, 00:04:18,     63,    0.0,    8.5,   0.00,   0.00, 1016.3,   74.1, -999.0
02-06-2022, 00:04:28,     63,    0.0,    8.5,   0.00,   0.00, 1016.3,   74.2, -999.0
02-06-2022, 00:04:38,     63,    0.0,    8.4,   0.00,   0.00, 1016.3,   74.3, -999.0
02-06-2022, 00:04:48,     63,    0.0,    8.4,   0.00,   0.00, 1016.3,   74.8, -999.0
02-06-2022, 00:04:58,     63,    0.0,    8.3,   0.00,   0.00, 1016.3,   75.0, -999.0
02-06-2022, 00:05:08,     62,    0.0,    8.3,   0.00,   0.00, 1016.3,   75.1, -999.0
02-06-2022, 00:05:18,     63,    0.0,    8.3,   0.00,   0.00, 1016.4,   75.3, -999.0
02-06-2022, 00:05:27,     63,    0.0,    8.3,   0.00,   0.00, 1016.3,   75.5, -999.0
02-06-2022, 00:05:38,     63,    0.0,    8.0,   0.00,   0.00, 1016.3,   75.5, -999.0
02-06-2022, 00:05:47,     63,    0.0,    8.2,   0.00,   0.00, 1016.3,   75.6, -999.0
02-06-2022, 00:05:57,     62,    0.0,    8.2,   0.00,   0.00, 1016.3,   76.0, -999.0
02-06-2022, 00:06:07,     63,    0.0,    8.1,   0.00,   0.00, 1016.3,   76.0, -999.0
02-06-2022, 00:06:17,     63,    0.0,    8.1,   0.00,   0.00, 1016.3,   76.0, -999.0
02-06-2022, 00:06:27,     63,    0.0,    8.1,   0.00,   0.00, 1016.4,   76.3, -999.0
02-06-2022, 00:06:37,     62,    0.0,    8.0,   0.00,   0.00, 1016.3,   76.4, -999.0
02-06-2022, 00:06:47,     63,    0.0,    8.0,   0.00,   0.00, 1016.4,   76.6, -999.0
02-06-2022, 00:06:57,     62,    0.0,    7.9,   0.00,   0.00, 1016.4,   76.7, -999.0
02-06-2022, 00:07:07,     62,    0.0,    7.8,   0.00,   0.00, 1016.3,   76.8, -999.0
02-06-2022, 00:07:17,     63,    0.0,    7.9,   0.00,   0.00, 1016.4,   77.1, -999.0
02-06-2022, 00:07:27,     63,    0.0,    7.9,   0.00,   0.00, 1016.4,   77.2, -999.0
02-06-2022, 00:07:37,     63,    0.0,    7.8,   0.00,   0.00, 1016.3,   77.4, -999.0
02-06-2022, 00:07:47,     62,    0.0,    7.9,   0.00,   0.00, 1016.4,   77.4, -999.0
02-06-2022, 00:07:57,     62,    0.0,    7.9,   0.00,   0.00, 1016.4,   77.5, -999.0
02-06-2022, 00:08:07,     63,    0.0,    7.9,   0.00,   0.00, 1016.4,   77.8, -999.0
02-06-2022, 00:08:17,     63,    0.0,    7.9,   0.00,   0.00, 1016.4,   78.0, -999.0
02-06-2022, 00:08:27,     63,    0.0,    7.8,   0.00,   0.00, 1016.4,   78.1, -999.0
02-06-2022, 00:08:36,     63,    0.0,    7.8,   0.00,   0.00, 1016.3,   78.1, -999.0
02-06-2022, 00:08:47,     63,    0.0,    7.8,   0.00,   0.00, 1016.4,   78.3, -999.0
02-06-2022, 00:08:56,     63,    0.0,    7.8,   0.00,   0.00, 1016.3,   78.4, -999.0
02-06-2022, 00:09:06,     62,    0.0,    7.8,   0.00,   0.00, 1016.4,   78.3, -999.0
02-06-2022, 00:09:17,     63,    0.0,    7.8,   0.00,   0.00, 1016.4,   78.4, -999.0
02-06-2022, 00:09:26,     62,    0.0,    7.8,   0.00,   0.00, 1016.4,   78.4, -999.0
02-06-2022, 00:09:36,     62,    0.0,    7.8,   0.00,   0.00, 1016.4,   78.5, -999.0
02-06-2022, 00:09:46,     63,    0.0,    7.7,   0.00,   0.00, 1016.4,   78.5, -999.0
02-06-2022, 00:09:56,     62,    0.0,    7.8,   0.00,   0.00, 1016.4,   78.6, -999.0
02-06-2022, 00:10:06,     62,    0.0,    7.8,   0.00,   0.00, 1016.3,   78.7, -999.0
02-06-2022, 00:10:16,     63,    0.0,    7.8,   0.00,   0.00, 1016.4,   78.7, -999.0
02-06-2022, 00:10:26,     63,    0.0,    7.8,   0.00,   0.00, 1016.4,   78.6, -999.0
02-06-2022, 00:10:36,     63,    0.0,    7.7,   0.00,   0.00, 1016.4,   78.8, -999.0
02-06-2022, 00:10:46,     63,    0.0,    7.7,   0.00,   0.00, 1016.4,   78.9, -999.0
02-06-2022, 00:10:56,     63,    0.0,    7.8,   0.00,   0.00, 1016.4,   78.9, -999.0
02-06-2022, 00:11:06,     63,    0.0,    7.7,   0.00,   0.00, 1016.4,   78.9, -999.0
02-06-2022, 00:11:16,     63,    0.0,    7.7,   0.00,   0.00, 1016.4,   79.0, -999.0
02-06-2022, 00:11:26,     63,    0.0,    7.7,   0.00,   0.00, 1016.3,   79.1, -999.0
02-06-2022, 00:11:36,     62,    0.0,    7.8,   0.00,   0.00, 1016.4,   79.2, -999.0
02-06-2022, 00:11:45,     62,    0.0,    7.8,   0.00,   0.00, 1016.4,   79.3, -999.0
02-06-2022, 00:11:56,     62,    0.0,    7.8,   0.00,   0.00, 1016.4,   79.5, -999.0
02-06-2022, 00:12:05,     63,    0.0,    7.8,   0.00,   0.00, 1016.3,   79.3, -999.0
02-06-2022, 00:12:15,     62,    0.0,    7.8,   0.00,   0.00, 1016.4,   79.4, -999.0
02-06-2022, 00:12:26,     63,    0.0,    7.9,   0.00,   0.00, 1016.4,   79.6, -999.0
02-06-2022, 00:12:35,     63,    0.0,    7.8,   0.00,   0.00, 1016.4,   79.5, -999.0
02-06-2022, 00:12:45,     63,    0.0,    7.8,   0.00,   0.00, 1016.3,   79.5, -999.0
02-06-2022, 00:12:55,     62,    0.0,    7.8,   0.00,   0.00, 1016.3,   79.5, -999.0
02-06-2022, 00:13:05,     62,    0.0,    7.8,   0.00,   0.00, 1016.4,   79.6, -999.0
02-06-2022, 00:13:15,     63,    0.0,    7.8,   0.00,   0.00, 1016.3,   79.6, -999.0
02-06-2022, 00:13:25,     62,    0.0,    7.8,   0.00,   0.00, 1016.4,   79.6, -999.0
02-06-2022, 00:13:35,     63,    0.0,    7.8,   0.00,   0.00, 1016.3,   79.7, -999.0
02-06-2022, 00:13:45,     63,    0.0,    7.9,   0.00,   0.00, 1016.3,   79.7, -999.0
02-06-2022, 00:13:55,     63,    0.0,    7.7,   0.00,   0.00, 1016.4,   79.7, -999.0
02-06-2022, 00:14:05,     63,    0.0,    7.7,   0.00,   0.00, 1016.3,   79.7, -999.0
02-06-2022, 00:14:15,     62,    0.0,    7.7,   0.00,   0.00, 1016.3,   79.6, -999.0
02-06-2022, 00:14:25,     63,    0.0,    7.7,   0.00,   0.00, 1016.3,   79.6, -999.0
02-06-2022, 00:14:35,     63,    0.0,    7.7,   0.00,   0.00, 1016.3,   79.8, -999.0
02-06-2022, 00:14:45,     63,    0.0,    7.7,   0.00,   0.00, 1016.4,   79.9, -999.0
02-06-2022, 00:14:55,     63,    0.0,    7.8,   0.00,   0.00, 1016.4,   80.0, -999.0
02-06-2022, 00:15:05,     62,    0.0,    7.7,   0.00,   0.00, 1016.4,   79.9, -999.0
02-06-2022, 00:15:14,     63,    0.0,    7.8,   0.00,   0.00, 1016.3,   80.0, -999.0
02-06-2022, 00:15:24,     63,    0.0,    7.7,   0.00,   0.00, 1016.4,   80.0, -999.0
02-06-2022, 00:15:35,     62,    0.0,    7.7,   0.00,   0.00, 1016.4,   79.9, -999.0
02-06-2022, 00:15:44,     62,    0.0,    7.6,   0.00,   0.00, 1016.4,   80.1, -999.0
02-06-2022, 00:15:54,     63,    0.0,    7.6,   0.00,   0.00, 1016.3,   80.0, -999.0
02-06-2022, 00:16:04,     63,    0.0,    7.7,   0.00,   0.00, 1016.4,   80.0, -999.0
02-06-2022, 00:16:14,     63,    0.0,    7.6,   0.00,   0.00, 1016.4,   80.1, -999.0
02-06-2022, 00:16:24,     63,    0.0,    7.6,   0.00,   0.00, 1016.3,   80.1, -999.0
02-06-2022, 00:16:34,     63,    0.0,    7.6,   0.00,   0.00, 1016.3,   80.1, -999.0
02-06-2022, 00:16:44,     63,    0.0,    7.5,   0.00,   0.00, 1016.4,   80.0, -999.0
02-06-2022, 00:16:54,     62,    0.0,    7.5,   0.00,   0.00, 1016.4,   80.0, -999.0
02-06-2022, 00:17:04,     63,    0.0,    7.7,   0.00,   0.00, 1016.3,   80.2, -999.0
02-06-2022, 00:17:14,     62,    0.0,    7.6,   0.00,   0.00, 1016.3,   80.2, -999.0
02-06-2022, 00:17:24,     63,    0.0,    7.6,   0.00,   0.00, 1016.4,   80.3, -999.0
02-06-2022, 00:17:34,     63,    0.0,    7.7,   0.00,   0.00, 1016.4,   80.2, -999.0
02-06-2022, 00:17:44,     62,    0.0,    7.7,   0.00,   0.00, 1016.4,   80.3, -999.0
02-06-2022, 00:17:54,     63,    0.0,    7.5,   0.00,   0.00, 1016.4,   80.3, -999.0
02-06-2022, 00:18:04,     62,    0.0,    7.6,   0.00,   0.00, 1016.4,   80.2, -999.0
02-06-2022, 00:18:14,     63,    0.0,    7.6,   0.00,   0.00, 1016.3,   80.2, -999.0
02-06-2022, 00:18:23,     63,    0.0,    7.6,   0.00,   0.00, 1016.4,   80.3, -999.0
02-06-2022, 00:18:33,     62,    0.0,    7.6,   0.00,   0.00, 1016.4,   80.3, -999.0
02-06-2022, 00:18:44,     63,    0.0,    7.6,   0.00,   0.00, 1016.4,   80.3, -999.0
02-06-2022, 00:18:53,     63,    0.0,    7.6,   0.00,   0.00, 1016.4,   80.5, -999.0
02-06-2022, 00:19:03,     63,    0.0,    7.6,   0.00,   0.00, 1016.3,   80.4, -999.0
02-06-2022, 00:19:13,     63,    0.0,    7.7,   0.00,   0.00, 1016.3,   80.3, -999.0
02-06-2022, 00:19:23,     62,    0.0,    7.7,   0.00,   0.00, 1016.4,   80.3, -999.0
02-06-2022, 00:19:33,     63,    0.0,    7.7,   0.00,   0.00, 1016.4,   80.3, -999.0
02-06-2022, 00:19:43,     63,    0.0,    7.7,   0.00,   0.00, 1016.4,   80.3, -999.0
02-06-2022, 00:19:53,     63,    0.0,    7.7,   0.00,   0.00, 1016.3,   80.3, -999.0
02-06-2022, 00:20:03,     63,    0.0,    7.7,   0.00,   0.00, 1016.4,   80.4, -999.0
02-06-2022, 00:20:13,     63,    0.0,    7.8,   0.00,   0.00, 1016.4,   80.3, -999.0
02-06-2022, 00:20:23,     63,    0.0,    7.6,   0.00,   0.00, 1016.4,   80.4, -999.0
02-06-2022, 00:20:33,     63,    0.0,    7.7,   0.00,   0.00, 1016.4,   80.2, -999.0
02-06-2022, 00:20:43,     63,    0.0,    7.6,   0.00,   0.00, 1016.3,   80.2, -999.0
02-06-2022, 00:20:53,     62,    0.0,    7.6,   0.00,   0.00, 1016.4,   80.1, -999.0
02-06-2022, 00:21:03,     63,    0.0,    7.6,   0.00,   0.00, 1016.4,   80.0, -999.0
02-06-2022, 00:21:13,     63,    0.0,    7.6,   0.00,   0.00, 1016.4,   80.1, -999.0
02-06-2022, 00:21:23,     62,    0.0,    7.6,   0.00,   0.00, 1016.3,   80.2, -999.0
02-06-2022, 00:21:32,     63,    0.0,    7.6,   0.00,   0.00, 1016.4,   80.1, -999.0
02-06-2022, 00:21:42,     63,    0.0,    7.6,   0.00,   0.00, 1016.4,   80.2, -999.0
02-06-2022, 00:21:53,     61,    0.0,    7.6,   0.00,   0.00, 1016.4,   80.2, -999.0
02-06-2022, 00:22:02,     63,    0.0,    7.6,   0.00,   0.00, 1016.4,   80.2, -999.0
02-06-2022, 00:22:12,     63,    0.0,    7.6,   0.00,   0.00, 1016.3,   80.1, -999.0
02-06-2022, 00:22:22,     63,    0.0,    7.6,   0.00,   0.00, 1016.4,   80.2, -999.0
02-06-2022, 00:22:32,     63,    0.0,    7.6,   0.00,   0.00, 1016.3,   80.2, -999.0
02-06-2022, 00:22:42,     63,    0.0,    7.5,   0.00,   0.00, 1016.3,   80.3, -999.0
02-06-2022, 00:22:52,     63,    0.0,    7.5,   0.00,   0.00, 1016.3,   80.2, -999.0
02-06-2022, 00:23:02,     62,    0.0,    7.6,   0.00,   0.00, 1016.3,   80.1, -999.0
02-06-2022, 00:23:12,     62,    0.0,    7.6,   0.00,   0.00, 1016.3,   80.2, -999.0
02-06-2022, 00:23:22,     62,    0.0,    7.5,   0.00,   0.00, 1016.3,   80.1, -999.0
02-06-2022, 00:23:32,     63,    0.0,    7.5,   0.00,   0.00, 1016.3,   80.2, -999.0
02-06-2022, 00:23:42,     63,    0.0,    7.5,   0.00,   0.00, 1016.3,   80.3, -999.0
02-06-2022, 00:23:52,     63,    0.0,    7.5,   0.00,   0.00, 1016.3,   80.3, -999.0
02-06-2022, 00:24:02,     64,    0.0,    7.5,   0.00,   0.00, 1016.4,   80.4, -999.0
02-06-2022, 00:24:12,     62,    0.0,    7.5,   0.00,   0.00, 1016.3,   80.3, -999.0
02-06-2022, 00:24:22,     62,    0.0,    7.5,   0.00,   0.00, 1016.4,   80.3, -999.0
02-06-2022, 00:24:32,     63,    0.0,    7.5,   0.00,   0.00, 1016.3,   80.3, -999.0
02-06-2022, 00:24:41,     62,    0.0,    7.6,   0.00,   0.00, 1016.3,   80.3, -999.0
02-06-2022, 00:24:51,     63,    0.0,    7.6,   0.00,   0.00, 1016.3,   80.4, -999.0
02-06-2022, 00:25:02,     63,    0.0,    7.5,   0.00,   0.00, 1016.3,   80.3, -999.0
02-06-2022, 00:25:11,     63,    0.0,    7.6,   0.00,   0.00, 1016.3,   80.4, -999.0
02-06-2022, 00:25:21,     63,    0.0,    7.5,   0.00,   0.00, 1016.3,   80.4, -999.0
02-06-2022, 00:25:32,     62,    0.0,    7.6,   0.00,   0.00, 1016.3,   80.3, -999.0
02-06-2022, 00:25:41,     62,    0.0,    7.6,   0.00,   0.00, 1016.3,   80.2, -999.0
02-06-2022, 00:25:51,     63,    0.0,    7.5,   0.00,   0.00, 1016.3,   80.3, -999.0
02-06-2022, 00:26:01,     63,    0.0,    7.6,   0.00,   0.00, 1016.3,   80.3, -999.0
02-06-2022, 00:26:11,     62,    0.0,    7.6,   0.00,   0.00, 1016.4,   80.3, -999.0
02-06-2022, 00:26:21,     63,    0.0,    7.6,   0.00,   0.00, 1016.4,   80.4, -999.0
02-06-2022, 00:26:31,     63,    0.0,    7.5,   0.00,   0.00, 1016.3,   80.3, -999.0
02-06-2022, 00:26:41,     62,    0.0,    7.5,   0.00,   0.00, 1016.3,   80.3, -999.0
02-06-2022, 00:26:51,     63,    0.0,    7.5,   0.00,   0.00, 1016.3,   80.3, -999.0
02-06-2022, 00:27:01,     62,    0.0,    7.5,   0.00,   0.00, 1016.3,   80.2, -999.0
02-06-2022, 00:27:11,     63,    0.0,    7.6,   0.00,   0.00, 1016.3,   80.2, -999.0
02-06-2022, 00:27:21,     63,    0.0,    7.6,   0.00,   0.00, 1016.3,   80.1, -999.0
02-06-2022, 00:27:31,     63,    0.0,    7.6,   0.00,   0.00, 1016.3,   80.1, -999.0
02-06-2022, 00:27:41,     63,    0.0,    7.5,   0.00,   0.00, 1016.3,   80.0, -999.0
02-06-2022, 00:27:50,     63,    0.0,    7.5,   0.00,   0.00, 1016.3,   80.1, -999.0
02-06-2022, 00:28:01,     62,    0.0,    7.6,   0.00,   0.00, 1016.3,   80.1, -999.0
02-06-2022, 00:28:11,     63,    0.0,    7.6,   0.00,   0.00, 1016.3,   80.1, -999.0
02-06-2022, 00:28:20,     63,    0.0,    7.5,   0.00,   0.00, 1016.4,   80.0, -999.0
02-06-2022, 00:28:30,     63,    0.0,    7.6,   0.00,   0.00, 1016.3,   80.0, -999.0
02-06-2022, 00:28:41,     63,    0.0,    7.5,   0.00,   0.00, 1016.4,   79.9, -999.0
02-06-2022, 00:28:50,     63,    0.0,    7.5,   0.00,   0.00, 1016.3,   80.0, -999.0
02-06-2022, 00:29:00,     62,    0.0,    7.5,   0.00,   0.00, 1016.3,   80.0, -999.0
02-06-2022, 00:29:10,     63,    0.0,    7.5,   0.00,   0.00, 1016.3,   79.9, -999.0
02-06-2022, 00:29:20,     63,    0.0,    7.5,   0.00,   0.00, 1016.3,   80.0, -999.0
02-06-2022, 00:29:30,     63,    0.0,    7.5,   0.00,   0.00, 1016.4,   80.1, -999.0
02-06-2022, 00:29:40,     62,    0.0,    7.5,   0.00,   0.00, 1016.3,   80.0, -999.0
02-06-2022, 00:29:50,     63,    0.0,    7.6,   0.00,   0.00, 1016.4,   80.2, -999.0
02-06-2022, 00:30:00,     63,    0.0,    7.6,   0.00,   0.00, 1016.3,   80.2, -999.0
02-06-2022, 00:30:10,     63,    0.0,    7.5,   0.00,   0.00, 1016.4,   80.1, -999.0
02-06-2022, 00:30:20,     62,    0.0,    7.5,   0.00,   0.00, 1016.4,   80.1, -999.0
02-06-2022, 00:30:30,     62,    0.0,    7.5,   0.00,   0.00, 1016.4,   80.1, -999.0
02-06-2022, 00:30:40,     63,    0.0,    7.5,   0.00,   0.00, 1016.4,   80.2, -999.0
02-06-2022, 00:30:50,     63,    0.0,    7.5,   0.00,   0.00, 1016.4,   80.2, -999.0
02-06-2022, 00:31:00,     63,    0.0,    7.6,   0.00,   0.00, 1016.4,   80.2, -999.0
02-06-2022, 00:31:10,     62,    0.0,    7.6,   0.00,   0.00, 1016.4,   80.3, -999.0
02-06-2022, 00:31:20,     63,    0.0,    7.5,   0.00,   0.00, 1016.4,   80.4, -999.0
02-06-2022, 00:31:29,     63,    0.0,    7.6,   0.00,   0.00, 1016.4,   80.3, -999.0
02-06-2022, 00:31:39,     63,    0.0,    7.6,   0.00,   0.00, 1016.4,   80.4, -999.0
02-06-2022, 00:31:50,     63,    0.0,    7.6,   0.00,   0.00, 1016.4,   80.3, -999.0
02-06-2022, 00:31:59,     62,    0.0,    7.6,   0.00,   0.00, 1016.4,   80.3, -999.0
02-06-2022, 00:32:09,     63,    0.0,    7.7,   0.00,   0.00, 1016.4,   80.4, -999.0
02-06-2022, 00:32:19,     63,    0.0,    7.6,   0.00,   0.00, 1016.4,   80.4, -999.0
02-06-2022, 00:32:29,     63,    0.0,    7.7,   0.00,   0.00, 1016.4,   80.5, -999.0
02-06-2022, 00:32:39,     63,    0.0,    7.7,   0.00,   0.00, 1016.4,   80.5, -999.0
02-06-2022, 00:32:49,     63,    0.0,    7.5,   0.00,   0.00, 1016.4,   80.4, -999.0
02-06-2022, 00:32:59,     62,    0.0,    7.5,   0.00,   0.00, 1016.4,   80.4, -999.0
02-06-2022, 00:33:09,     63,    0.0,    7.7,   0.00,   0.00, 1016.3,   80.5, -999.0
02-06-2022, 00:33:19,     63,    0.0,    7.7,   0.00,   0.00, 1016.4,   80.4, -999.0
02-06-2022, 00:33:29,     63,    0.0,    7.7,   0.00,   0.00, 1016.4,   80.6, -999.0
02-06-2022, 00:33:39,     63,    0.0,    7.7,   0.00,   0.00, 1016.4,   80.7, -999.0
02-06-2022, 00:33:49,     62,    0.0,    7.8,   0.00,   0.00, 1016.4,   80.8, -999.0
02-06-2022, 00:33:59,     62,    0.0,    7.8,   0.00,   0.00, 1016.4,   80.7, -999.0
02-06-2022, 00:34:08,     62,    0.0,    7.7,   0.00,   0.00, 1016.4,   80.7, -999.0
02-06-2022, 00:34:19,     63,    0.0,    7.8,   0.00,   0.00, 1016.4,   80.6, -999.0
02-06-2022, 00:34:29,     69,    0.0,    7.8,   0.00,   0.00, 1016.4,   80.6, -999.0
02-06-2022, 00:34:38,     62,    0.0,    7.7,   0.00,   0.00, 1016.4,   80.6, -999.0
02-06-2022, 00:34:48,     63,    0.0,    7.7,   0.00,   0.00, 1016.4,   80.5, -999.0
02-06-2022, 00:34:59,     62,    0.0,    7.7,   0.00,   0.00, 1016.4,   80.4, -999.0
02-06-2022, 00:35:08,     62,    0.0,    7.7,   0.00,   0.00, 1016.4,   80.4, -999.0
02-06-2022, 00:35:18,     63,    0.0,    7.8,   0.00,   0.00, 1016.4,   80.4, -999.0
02-06-2022, 00:35:28,     64,    0.0,    7.8,   0.00,   0.00, 1016.4,   80.4, -999.0
02-06-2022, 00:35:38,     63,    0.0,    7.8,   0.00,   0.00, 1016.4,   80.6, -999.0
02-06-2022, 00:35:48,     63,    0.0,    7.9,   0.00,   0.00, 1016.4,   80.5, -999.0
02-06-2022, 00:35:58,     63,    0.0,    7.7,   0.00,   0.00, 1016.4,   80.6, -999.0
02-06-2022, 00:36:08,     63,    0.0,    7.8,   0.00,   0.00, 1016.4,   80.5, -999.0
02-06-2022, 00:36:18,     63,    0.0,    7.8,   0.00,   0.00, 1016.4,   80.5, -999.0
02-06-2022, 00:36:28,     62,    0.0,    7.8,   0.00,   0.00, 1016.4,   80.5, -999.0
02-06-2022, 00:36:38,     63,    0.0,    7.8,   0.00,   0.00, 1016.4,   80.5, -999.0
02-06-2022, 00:36:48,     63,    0.0,    7.8,   0.00,   0.00, 1016.4,   80.5, -999.0
02-06-2022, 00:36:58,     63,    0.0,    7.8,   0.00,   0.00, 1016.4,   80.5, -999.0
02-06-2022, 00:37:08,     62,    0.0,    7.7,   0.00,   0.00, 1016.4,   80.6, -999.0
02-06-2022, 00:37:18,     63,    0.0,    7.7,   0.00,   0.00, 1016.4,   80.6, -999.0
02-06-2022, 00:37:28,     62,    0.0,    7.7,   0.00,   0.00, 1016.4,   80.5, -999.0
02-06-2022, 00:37:38,     62,    0.0,    7.7,   0.00,   0.00, 1016.4,   80.5, -999.0
02-06-2022, 00:37:47,     63,    0.0,    7.8,   0.00,   0.00, 1016.5,   80.5, -999.0
02-06-2022, 00:37:57,     63,    0.0,    7.7,   0.00,   0.00, 1016.4,   80.5, -999.0
02-06-2022, 00:38:08,     63,    0.0,    7.8,   0.00,   0.00, 1016.4,   80.5, -999.0
02-06-2022, 00:38:17,     63,    0.0,    7.8,   0.00,   0.00, 1016.5,   80.6, -999.0
02-06-2022, 00:38:27,     62,    0.0,    7.7,   0.00,   0.00, 1016.4,   80.5, -999.0
02-06-2022, 00:38:37,     63,    0.0,    7.7,   0.00,   0.00, 1016.4,   80.6, -999.0
02-06-2022, 00:38:47,     63,    0.0,    7.8,   0.00,   0.00, 1016.4,   80.6, -999.0
02-06-2022, 00:38:57,     63,    0.0,    7.8,   0.00,   0.00, 1016.4,   80.6, -999.0
02-06-2022, 00:39:07,     63,    0.0,    7.7,   0.00,   0.00, 1016.4,   80.5, -999.0
02-06-2022, 00:39:17,     63,    0.0,    7.7,   0.00,   0.00, 1016.4,   80.6, -999.0
02-06-2022, 00:39:27,     62,    0.0,    7.8,   0.00,   0.00, 1016.4,   80.6, -999.0
02-06-2022, 00:39:37,     63,    0.0,    7.7,   0.00,   0.00, 1016.4,   80.5, -999.0
02-06-2022, 00:39:47,     63,    0.0,    7.7,   0.00,   0.00, 1016.4,   80.6, -999.0
02-06-2022, 00:39:57,     63,    0.0,    7.8,   0.00,   0.00, 1016.4,   80.8, -999.0
02-06-2022, 00:40:07,     62,    0.0,    7.8,   0.00,   0.00, 1016.4,   81.0, -999.0
02-06-2022, 00:40:17,     63,    0.0,    7.8,   0.00,   0.00, 1016.4,   81.0, -999.0
02-06-2022, 00:40:27,     63,    0.0,    7.8,   0.00,   0.00, 1016.4,   81.0, -999.0
02-06-2022, 00:40:37,     62,    0.0,    7.8,   0.00,   0.00, 1016.4,   80.8, -999.0
02-06-2022, 00:40:47,     63,    0.0,    7.8,   0.00,   0.00, 1016.4,   80.8, -999.0
02-06-2022, 00:40:57,     63,    0.0,    7.8,   0.00,   0.00, 1016.4,   80.8, -999.0
02-06-2022, 00:41:06,     63,    0.0,    7.7,   0.00,   0.00, 1016.4,   80.7, -999.0
02-06-2022, 00:41:17,     64,    0.0,    7.7,   0.00,   0.00, 1016.4,   80.7, -999.0
02-06-2022, 00:41:26,     63,    0.0,    7.7,   0.00,   0.00, 1016.4,   80.5, -999.0
02-06-2022, 00:41:36,     63,    0.0,    7.6,   0.00,   0.00, 1016.4,   80.4, -999.0
02-06-2022, 00:41:46,     63,    0.0,    7.6,   0.00,   0.00, 1016.4,   80.4, -999.0
02-06-2022, 00:41:56,     63,    0.0,    7.7,   0.00,   0.00, 1016.4,   80.5, -999.0
02-06-2022, 00:42:06,     63,    0.0,    7.7,   0.00,   0.00, 1016.4,   80.6, -999.0
02-06-2022, 00:42:16,     63,    0.0,    7.7,   0.00,   0.00, 1016.4,   80.5, -999.0
02-06-2022, 00:42:26,     62,    0.0,    7.7,   0.00,   0.00, 1016.5,   80.6, -999.0
02-06-2022, 00:42:36,     63,    0.0,    7.7,   0.00,   0.00, 1016.4,   80.6, -999.0
02-06-2022, 00:42:46,     63,    0.0,    7.7,   0.00,   0.00, 1016.4,   80.6, -999.0
02-06-2022, 00:42:56,     63,    0.0,    7.7,   0.00,   0.00, 1016.4,   80.8, -999.0
02-06-2022, 00:43:06,     63,    0.0,    7.7,   0.00,   0.00, 1016.4,   81.0, -999.0
02-06-2022, 00:43:16,     63,    0.0,    7.7,   0.00,   0.00, 1016.4,   80.9, -999.0
02-06-2022, 00:43:27,     62,    0.0,    7.7,   0.00,   0.00, 1016.4,   80.9, -999.0
02-06-2022, 00:43:36,     62,    0.0,    7.6,   0.00,   0.00, 1016.4,   80.9, -999.0
02-06-2022, 00:43:46,     62,    0.0,    7.4,   0.00,   0.00, 1016.4,   80.8, -999.0
02-06-2022, 00:43:56,     63,    0.0,    7.6,   0.00,   0.00, 1016.4,   80.8, -999.0
02-06-2022, 00:44:05,     63,    0.0,    7.6,   0.00,   0.00, 1016.4,   80.8, -999.0
02-06-2022, 00:44:15,     63,    0.0,    7.5,   0.00,   0.00, 1016.4,   81.1, -999.0
02-06-2022, 00:44:26,     63,    0.0,    7.5,   0.00,   0.00, 1016.4,   81.0, -999.0
02-06-2022, 00:44:35,     62,    0.0,    7.5,   0.00,   0.00, 1016.4,   81.1, -999.0
02-06-2022, 00:44:45,     62,    0.0,    7.6,   0.00,   0.00, 1016.4,   81.3, -999.0
02-06-2022, 00:44:56,     57,    0.0,    7.5,   0.00,   0.00, 1016.4,   81.3, -999.0
02-06-2022, 00:45:05,     62,    0.0,    7.5,   0.00,   0.00, 1016.4,   81.3, -999.0
02-06-2022, 00:45:15,     63,    0.0,    7.5,   0.00,   0.00, 1016.4,   81.2, -999.0
02-06-2022, 00:45:25,     63,    0.0,    7.5,   0.00,   0.00, 1016.4,   81.2, -999.0
02-06-2022, 00:45:35,     62,    0.0,    7.5,   0.00,   0.00, 1016.3,   81.1, -999.0
02-06-2022, 00:45:45,     63,    0.0,    7.5,   0.00,   0.00, 1016.3,   81.2, -999.0
02-06-2022, 00:45:55,     63,    0.0,    7.5,   0.00,   0.00, 1016.3,   81.3, -999.0
02-06-2022, 00:46:05,     63,    0.0,    7.6,   0.00,   0.00, 1016.3,   81.4, -999.0
02-06-2022, 00:46:15,     62,    0.0,    7.5,   0.00,   0.00, 1016.4,   81.4, -999.0
02-06-2022, 00:46:25,     63,    0.0,    7.4,   0.00,   0.00, 1016.4,   81.3, -999.0
02-06-2022, 00:46:36,     63,    0.0,    7.5,   0.00,   0.00, 1016.4,   81.5, -999.0
02-06-2022, 00:46:45,     62,    0.0,    7.5,   0.00,   0.00, 1016.4,   81.5, -999.0